Location: Newark
(49.3000°N, 9.4667°E)
Time: 23:38:32
(UTC+00:00)

Transit 4A - Pass Details

Date: 31 May 2019
Orbit: 862 x 983 km, 66.8° (Epoch: 17 June)

Event Time Altitude Azimuth Distance (km) Brightness Sun altitude
Rises 19:53:00 0° 324° (NW) 3,697 13.2 -5.2°
Reaches altitude 10° 19:55:43 10° 330° (NNW) 2,747 11.9 -5.6°
Maximum altitude 20:01:54 46° 43° (NE) 1,303 8.7 -6.3°
Drops below altitude 10° 20:07:58 10° 116° (ESE) 2,706 9.7 -7.0°
Enters shadow 20:08:46 - 118° (ESE) 2,983 9.9 -7.1°
